Regional Weather Roundup
Issued by NWS

Home | Current Version | Previous Version | Graphics & Text | Print | Product List | Glossary On
Versions: 1 2 3 4 5 6 7 8 9 10 11 12 13 14 15 16 17 18 19 20 21 22 23 24 25 26 27 28 29 30 31 32 33 34 35 36 37 38 39 40 41 42 43 44 45 46 47 48 49 50
000
ASUS43 KMKX 260959
RWRWI

WISCONSIN REGIONAL WEATHER ROUNDUP
NATIONAL WEATHER SERVICE MILWAUKEE/SULLIVAN WI
400 AM CST MON JAN 26 2015

NOTE: "FAIR" INDICATES FEW OR NO CLOUDS BELOW 12,000 FEET WITH NO
SIGNIFICANT WEATHER AND/OR OBSTRUCTIONS TO VISIBILITY.

WIZ001-002-006>008-014>016-023>028-261100-
NORTHWEST WISCONSIN

CITY           SKY/WX    TMP DP  RH WIND       PRES   REMARKS
SUPERIOR ARPT  LGT SNOW  22  16  78 SW6       29.81F WCI  14
ASHLAND        CLOUDY    20  10  65 S9        29.84F WCI   9
HAYWARD        CLOUDY    19  11  70 S8        29.81F WCI   9
SIREN          FLURRIES  21  17  86 S10       29.79F WCI  10
CUMBERLAND     LGT SNOW  19  14  79 S10       29.81F WCI   8
RICE LAKE      CLOUDY    19  14  80 SE7       29.86F WCI  10
CHETEK         CLOUDY    19  14  79 SE5       29.87F WCI  13
LADYSMITH      CLOUDY    18  11  74 S8        29.89F WCI   8
EAU CLAIRE     NOT AVBL
MENOMONIE      CLOUDY    21  16  79 E6        29.89F WCI  13
NEW RICHMOND   CLOUDY    21  17  85 S10       29.82F WCI  10
OSCEOLA        CLOUDY    22  18  84 S12       29.84F WCI  11
$$

WIZ003>005-009-010-017-018-261100-
NORTH CENTRAL WISCONSIN

CITY           SKY/WX    TMP DP  RH WIND       PRES   REMARKS
MANITOWISH WTR CLOUDY    13   6  74 S7        29.83F WCI   2
ARBOR VITAE    CLOUDY    14   7  73 S10       29.85F WCI   1
WOODRUFF       CLOUDY    14   7  73 S10       29.85F WCI   1
RHINELANDER    CLOUDY    12   4  70 SW7       29.87F WCI   1
EAGLE RIVER    MOCLDY    11   4  70 SW6       29.86F WCI   2
LAND O LAKES   CLOUDY    13   6  73 S6        29.85F WCI   4
PHILLIPS       CLOUDY    14   7  73 S7        29.85F WCI   4
TOMAHAWK       CLOUDY    12   6  76 CALM      29.89F
MEDFORD        CLOUDY    14   8  77 S10       29.87F WCI   1
MERRILL        CLOUDY    13   7  76 SW5       29.91F WCI   6
$$

WIZ029-030-035-036-043>047-261100-
CENTRAL WISCONSIN

CITY           SKY/WX    TMP DP  RH WIND       PRES   REMARKS
WAUSAU         CLOUDY    12   6  77 S5        29.90F WCI   4
MOSINEE        MOCLDY    10   9  92 SW3       29.95R
MARSHFIELD     CLOUDY    15   7  70 S9        29.90F WCI   3
STEVENS POINT  CLOUDY     5   1  85 CALM      29.95F
WAUPACA        PTCLDY    12   8  84 CALM      29.98F
WAUTOMA        NOT AVBL
WISC RAPIDS    CLOUDY    14   7  73 S5        29.96F WCI   6
CAMP DOUGLAS   NOT AVBL
$$

WIZ011>013-019>022-031-037>040-048>050-261100-
NORTHEAST WISCONSIN

CITY           SKY/WX    TMP DP  RH WIND       PRES   REMARKS
ANTIGO         MOCLDY     7   3  84 SW3       29.91F
SHAWANO        MOCLDY    12   8  84 CALM      29.98F
OCONTO         MOCLDY     8   6  92 CALM      29.99F
STURGEON BAY   MOCLDY     9   5  85 CALM      29.98F
GREEN BAY      CLOUDY    13   9  84 CALM      29.97F
MANITOWOC      NOT AVBL
APPLETON       MOCLDY    12   7  79 CALM      29.96F
CLINTONVILLE   PTCLDY    10   5  79 NW3       29.97F
OSHKOSH        CLEAR     11   6  81 CALM      29.96F
$$

WIZ032>034-041-042-053>061-261100-
SOUTHWEST WISCONSIN

CITY           SKY/WX    TMP DP  RH WIND       PRES   REMARKS
LA CROSSE      CLOUDY    23  14  68 S12       29.94F WCI  12
SPARTA         CLOUDY    19  12  73 CALM      29.97F
VIROQUA        CLOUDY    18  13  79 S7        29.93F WCI   9
BOSCOBEL       CLOUDY    19  13  77 CALM      29.99F
PRAIRIE DU CHI CLOUDY    21  12  68 SE3       29.98F
PLATTEVILLE    CLOUDY    16  13  87 CALM      29.97F
$$

WIZ056-057-062-063-064-067-068-261100-
SOUTH CENTRAL WISCONSIN

CITY           SKY/WX    TMP DP  RH WIND       PRES   REMARKS
REEDSBURG      MOCLDY    14  10  87 CALM      29.97F
BARABOO/DELLS  MOCLDY    13  10  87 CALM      29.97F
LONE ROCK      NOT AVBL
MINERAL POINT  CLOUDY    16  12  86 S3        29.95
MADISON        PTCLDY    13   9  84 CALM      29.97F
MIDDLETON      PTCLDY    14  10  83 CALM      29.97F
WATERTOWN      CLEAR     10   8  92 CALM      29.97F
MONROE         PTCLDY    14  12  92 NW3       29.96F
JANESVILLE     CLEAR     14  10  85 CALM      29.98F
$$

WIZ051-052-058>065-066-070>072-261100-
SOUTHEAST WISCONSIN

CITY           SKY/WX    TMP DP  RH WIND       PRES   REMARKS
MILWAUKEE      MOCLDY    17  11  77 W3        29.97F
WAUKESHA       CLEAR     10   9  92 CALM      29.97F
MILWAUKEE/TIMM CLEAR     14  10  85 CALM      29.98F
RACINE         MOCLDY    19  13  77 W5        29.99F WCI  12
BURLINGTON     CLEAR      9   7  90 CALM      29.97F
KENOSHA        CLOUDY    17  13  84 W6        29.97F WCI   9
FOND DU LAC    CLEAR     10   6  84 CALM      29.97F
SHEBOYGAN      PTCLDY    11   8  88 CALM      29.97F
WEST BEND      MOCLDY    12   9  85 CALM      29.97S
JUNEAU         CLEAR     11   7  82 CALM      29.97F
$$

LSZ147-162-261100-
LAKE SUPERIOR

STATION/POSITION TIME  TEMP    WIND        PRES    WAVE
                       AIR SEA DIR/SP/G            HT/PER
                 (UTC) (F)     (DEG/KT/KT) (MB)    (FT/S)
DEVILS ISLAND    0900   20     200/  9/ 12 1012.3F
PORT WING        0900   22     170/  7/ 15 1010.8
SAXON HARBOR     0900   20      CALM  /  8 1011.9
$$

LMZ867-665-643>646-261100-
LAKE MICHIGAN

STATION/POSITION TIME  TEMP    WIND        PRES    WAVE
                       AIR SEA DIR/SP/G            HT/PER
                 (UTC) (F)     (DEG/KT/KT) (MB)    (FT/S)
NORTHPORT PIER   0914   13      CALM  /  2 1015.6F
SISTER BAY       0913    9        CALM       N/A
KEWAUNEE LAKESHO 0900   12     300/  3/  7 1014.9F
SHEBOYGAN LAKESH 0900   23     150/  8/  9 1016.7F
PORT WASHINGTON  0940   16        CALM     1015.9F
MILWAUKEE LAKESH 0900   19     300/  5/  7   N/A
KENOSHA   LAKESH 0900   24      80/  8/ 11 1015.6F
$$

TC  - TEMPERATURE IN CELSIUS
VSB - VISIBILITY IN STATUTE MILES
WCI - WIND CHILL INDEX
HX  - HEAT INDEX




USA.gov is the U.S. government's official web portal to all federal, state and local government web resources and services.